GW4575 Weather Reports


Display with metric or nautical units.
time (UTC)temp
F
wind
direction
speed
MPH
gust
MPH
rain 1hr
in
rain 24hr
in
rain mn
in
humidity
%
barometer
mb
20260831112503 66 105 2.0 7.0 0.00 0.06 0.06 99 1014.3
20260831111958 66 51 3.0 7.0 0.00 0.06 0.06 99 1014.4
20260831111455 65 150 1.0 3.0 0.00 0.06 0.06 99 1014.2
20260831110950 65 73 2.0 3.0 0.00 0.06 0.06 99 1014.4
20260831110445 65 165 2.0 6.0 0.00 0.06 0.06 99 1014.1
20260831105944 65 147 2.0 3.0 0.00 0.06 0.06 99 1014.3
20260831105440 65 113 4.0 6.0 0.00 0.06 0.06 99 1014.3
20260831104939 65 142 4.0 7.0 0.00 0.06 0.06 99 1014.3
20260831104436 65 162 5.0 7.0 0.00 0.06 0.06 99 1013.9
20260831103931 65 121 6.0 8.0 0.00 0.06 0.06 99 1013.9
20260831103426 65 200 2.0 6.0 0.00 0.06 0.06 99 1014.0
20260831102921 65 155 4.0 11.0 0.00 0.06 0.06 99 1014.0
20260831102416 65 150 4.0 6.0 0.00 0.06 0.06 99 1014.0
20260831101911 65 181 3.0 7.0 0.00 0.06 0.06 99 1014.0
20260831101406 65 45 3.0 6.0 0.00 0.06 0.06 99 1013.9
20260831100903 65 57 5.0 9.0 0.00 0.06 0.06 99 1013.8
20260831100358 66 148 5.0 7.0 0.00 0.06 0.06 99 1014.1
20260831095858 65 178 5.0 8.0 0.00 0.06 0.06 99 1013.9
20260831095357 65 115 4.0 8.0 0.00 0.06 0.06 99 1014.4
20260831094853 65 105 3.0 6.0 0.00 0.06 0.06 99 1014.7
20260831094348 65 102 5.0 7.0 0.05 0.06 0.06 99 1014.6
20260831093844 65 83 4.0 6.0 0.05 0.06 0.06 99 1014.7
20260831093339 65 82 4.0 6.0 0.00 0.05 0.05 99 1014.7
20260831092836 65 111 3.0 6.0 0.00 0.05 0.05 99 1015.0
20260831092331 65 81 2.0 7.0 0.00 0.05 0.05 99 1015.2
20260831091826 65 93 5.0 10.0 0.00 0.05 0.05 99 1015.4
20260831091322 65 95 3.0 7.0 0.00 0.05 0.05 99 1015.3
20260831090817 65 163 3.0 8.0 0.00 0.05 0.05 99 1015.4
20260831090313 65 157 6.0 11.0 0.00 0.05 0.05 99 1015.8
20260831085809 65 140 4.0 6.0 0.07 0.05 0.05 99 1015.7
20260831085306 65 167 6.0 9.0 0.05 0.04 0.04 99 1015.7
20260831084803 65 144 2.0 8.0 0.12 0.04 0.04 99 1015.8
20260831084259 65 213 3.0 4.0 0.14 0.03 0.03 99 1015.7
20260831083755 65 131 6.0 7.0 0.07 0.02 0.02 99 1015.7
20260831083246 65 116 3.0 8.0 0.05 0.01 0.01 99 1015.8
20260831082744 65 66 4.0 6.0 0.00 0.00 0.00 99 1015.8
20260831082239 65 100 2.0 11.0 0.00 0.00 0.00 99 1015.8
20260831081735 65 151 6.0 9.0 0.00 0.00 0.00 99 1015.9
20260831081230 65 187 3.0 4.0 0.00 0.00 0.00 99 1015.8
20260831080726 65 112 3.0 3.0 0.00 0.00 0.00 99 1015.9
20260831080225 65 187 4.0 6.0 0.00 0.00 0.00 99 1015.8
20260831075721 65 116 3.0 6.0 0.00 0.00 0.00 99 1015.9
20260831075218 65 78 4.0 7.0 0.00 0.00 0.00 99 1015.8
20260831074717 65 99 3.0 7.0 0.00 0.00 0.00 99 1015.8
20260831074216 65 110 3.0 6.0 0.00 0.00 0.00 99 1015.9
20260831073712 65 104 4.0 7.0 0.00 0.00 0.00 99 1016.0
20260831073211 65 179 5.0 8.0 0.00 0.00 0.00 99 1015.9
20260831072706 65 165 3.0 6.0 0.00 0.00 0.00 99 1016.0
20260831072202 65 126 3.0 6.0 0.00 0.00 0.00 99 1016.2
20260831071656 65 153 3.0 6.0 0.00 0.00 0.00 99 1016.2
20260831071150 65 165 3.0 4.0 0.00 0.00 0.00 99 1016.3
20260831070644 65 168 3.0 6.0 0.00 0.00 0.00 99 1016.3
20260831070139 65 113 6.0 9.0 0.00 0.00 0.00 99 1016.3
20260831065638 65 111 2.0 7.0 0.00 0.00 0.00 99 1016.1
20260831065136 65 128 3.0 7.0 0.00 0.00 0.00 99 1016.4
20260831064632 65 128 4.0 8.0 0.00 0.00 0.00 99 1016.4
20260831064127 65 132 4.0 7.0 0.00 0.00 0.00 99 1016.4
20260831063623 65 105 3.0 8.0 0.00 0.00 0.00 99 1016.4
20260831063118 65 119 4.0 9.0 0.00 0.00 0.00 99 1016.5
20260831062612 65 87 4.0 7.0 0.00 0.00 0.00 99 1016.4
20260831062107 65 162 3.0 8.0 0.00 0.00 0.00 99 1016.8
20260831061604 65 122 3.0 9.0 0.00 0.00 0.00 99 1016.9
20260831061101 65 139 5.0 7.0 0.00 0.00 0.00 99 1017.0
20260831060556 65 94 4.0 9.0 0.00 0.00 0.00 99 1016.9
20260831060051 65 110 3.0 4.0 0.00 0.00 0.00 99 1016.9
20260831055545 65 95 3.0 6.0 0.00 0.00 0.00 99 1016.9
20260831055041 65 144 3.0 7.0 0.00 0.00 0.00 99 1017.2
20260831054540 65 207 3.0 7.0 0.00 0.00 0.00 99 1017.0
20260831054040 65 93 4.0 8.0 0.00 0.00 0.00 99 1017.2
20260831053538 64 60 4.0 7.0 0.00 0.00 0.00 99 1017.2
20260831053038 64 93 4.0 11.0 0.00 0.00 0.00 99 1017.4
20260831052537 64 98 3.0 7.0 0.00 0.00 0.00 99 1017.6
20260831052032 64 169 2.0 4.0 0.00 0.00 0.00 99 1017.7
20260831051530 64 106 2.0 7.0 0.00 0.00 0.00 99 1017.8
20260831051029 64 114 2.0 7.0 0.00 0.00 0.00 99 1017.7
20260831050529 64 122 2.0 6.0 0.00 0.00 0.00 99 1017.9
20260831050027 64 168 2.0 3.0 0.00 0.00 0.00 99 1017.7
20260831045527 64 200 2.0 7.0 0.00 0.00 0.00 99 1018.1
20260831045023 63 137 3.0 4.0 0.00 0.00 0.00 99 1017.9
20260831044518 63 181 2.0 4.0 0.00 0.00 0.00 99 1017.8
20260831044013 63 100 1.0 2.0 0.00 0.00 0.00 99 1017.8
20260831043513 63 182 2.0 3.0 0.00 0.00 0.00 99 1017.9
20260831043008 63 87 2.0 4.0 0.00 0.00 0.00 99 1018.1
20260831042503 63 162 2.0 4.0 0.00 0.00 0.00 99 1017.9
20260831042003 63 174 1.0 2.0 0.00 0.00 0.00 99 1018.1
20260831041458 63 162 2.0 3.0 0.00 0.00 0.00 99 1017.9
20260831040957 64 185 0.0 3.0 0.00 0.00 0.00 99 1017.7
20260831040452 64 111 1.0 2.0 0.00 0.00 0.00 99 1017.5
20260831035949 64 173 1.0 3.0 0.00 0.01 0.01 99 1017.4
20260831035449 64 116 2.0 3.0 0.00 0.01 0.01 99 1017.4
20260831034944 64 180 0.0 4.0 0.00 0.01 0.01 99 1017.4
20260831034434 64 81 2.0 4.0 0.00 0.01 0.01 99 1017.5
20260831033929 64 173 4.0 6.0 0.00 0.01 0.01 99 1017.3
20260831033425 64 173 4.0 7.0 0.00 0.01 0.01 99 1017.5
20260831032920 64 95 3.0 6.0 0.00 0.01 0.01 99 1017.5
20260831032419 64 183 2.0 4.0 0.00 0.01 0.01 99 1017.5
20260831031915 64 93 2.0 6.0 0.00 0.01 0.01 99 1017.3
20260831031414 64 80 2.0 8.0 0.00 0.01 0.01 99 1017.2
20260831030908 64 55 4.0 7.0 0.00 0.01 0.01 99 1017.1
20260831030408 64 171 3.0 7.0 0.00 0.01 0.01 99 1017.2
20260831025906 64 115 4.0 8.0 0.00 0.01 0.01 99 1017.5
20260831025401 63 95 1.0 4.0 0.00 0.01 0.01 99 1017.5
20260831024856 64 154 1.0 2.0 0.00 0.01 0.01 99 1017.7
20260831024355 64 214 0.0 2.0 0.00 0.01 0.01 99 1017.9
20260831023855 64 179 1.0 2.0 0.00 0.01 0.01 99 1017.9
20260831023353 63 153 4.0 6.0 0.00 0.01 0.01 99 1017.8
20260831022849 63 175 3.0 4.0 0.00 0.01 0.01 99 1017.7
20260831022347 63 122 2.0 6.0 0.00 0.01 0.01 99 1017.7
20260831021842 63 164 2.0 3.0 0.00 0.01 0.01 99 1017.7
20260831021336 63 160 3.0 7.0 0.00 0.01 0.01 99 1017.5
20260831020832 63 56 1.0 3.0 0.00 0.01 0.01 99 1017.6
20260831020332 63 115 4.0 6.0 0.00 0.01 0.01 99 1017.7
20260831015827 63 168 2.0 3.0 0.00 0.01 0.01 99 1017.7
20260831015323 63 108 2.0 6.0 0.00 0.01 0.01 99 1017.9
20260831014823 63 161 4.0 6.0 0.00 0.01 0.01 99 1017.7
20260831014318 64 65 2.0 4.0 0.00 0.01 0.01 99 1017.7
20260831013814 64 79 2.0 3.0 0.00 0.01 0.01 99 1017.7
20260831013313 64 88 4.0 8.0 0.00 0.01 0.01 99 1017.7
20260831012808 64 86 1.0 4.0 0.00 0.01 0.01 99 1017.6
20260831012306 64 167 5.0 8.0 0.00 0.01 0.01 99 1017.4
20260831011803 64 166 6.0 10.0 0.00 0.01 0.01 99 1017.7
20260831011258 64 160 2.0 4.0 0.00 0.01 0.01 99 1017.6
20260831010754 64 180 4.0 6.0 0.00 0.01 0.01 98 1017.6
20260831010248 64 124 3.0 6.0 0.00 0.01 0.01 98 1017.5
20260831005744 64 191 2.0 4.0 0.00 0.01 0.01 98 1017.4
20260831005239 64 93 3.0 7.0 0.00 0.01 0.01 98 1017.6
20260831004734 64 110 4.0 7.0 0.00 0.01 0.01 97 1017.6
20260831004231 64 83 2.0 9.0 0.00 0.01 0.01 98 1017.6
20260831003726 64 97 2.0 4.0 0.00 0.01 0.01 98 1017.6
20260831003223 64 81 2.0 3.0 0.00 0.01 0.01 98 1017.5
20260831002722 64 173 1.0 4.0 0.00 0.01 0.01 97 1017.6
20260831002221 65 174 1.0 4.0 0.00 0.01 0.01 97 1017.4
20260831001718 65 164 3.0 3.0 0.00 0.01 0.01 96 1017.6
20260831001218 65 204 2.0 3.0 0.00 0.01 0.01 96 1017.6
20260831000714 65 153 2.0 4.0 0.00 0.01 0.01 96 1017.6
20260831000211 65 138 3.0 4.0 0.00 0.01 0.01 96 1017.5
20260830235708 65 88 4.0 6.0 0.00 0.01 0.01 96 1017.7
20260830235203 65 110 2.0 3.0 0.00 0.01 0.01 96 1017.7
20260830234658 65 71 3.0 4.0 0.00 0.01 0.01 96 1017.5
20260830234154 65 153 2.0 4.0 0.00 0.01 0.01 96 1017.6
20260830233649 65 195 2.0 4.0 0.00 0.01 0.01 95 1017.7
20260830233144 65 174 2.0 4.0 0.00 0.01 0.01 95 1017.9
20260830232641 65 179 1.0 2.0 0.00 0.01 0.01 95 1017.8
20260830232136 65 125 2.0 6.0 0.00 0.01 0.01 95 1017.8
20260830231632 65 89 3.0 4.0 0.00 0.01 0.01 95 1017.8
20260830231131 65 223 3.0 6.0 0.00 0.01 0.01 96 1017.8
20260830230627 65 93 3.0 7.0 0.00 0.01 0.01 95 1017.8
20260830230127 66 79 1.0 7.0 0.00 0.01 0.01 95 1017.9
20260830225622 66 111 1.0 4.0 0.00 0.01 0.01 95 1018.0
20260830225117 66 115 2.0 4.0 0.00 0.01 0.01 94 1018.3
20260830224615 66 177 2.0 3.0 0.00 0.01 0.01 95 1018.5
20260830224107 66 135 2.0 4.0 0.00 0.01 0.01 94 1018.6
20260830223603 66 110 3.0 7.0 0.00 0.01 0.01 94 1018.5
20260830223103 67 143 2.0 2.0 0.00 0.01 0.01 93 1018.4
20260830222602 67 176 1.0 2.0 0.00 0.01 0.01 93 1018.0
20260830222059 67 95 1.0 3.0 0.00 0.01 0.01 92 1017.8
20260830221555 67 141 1.0 9.0 0.00 0.01 0.01 92 1017.8
20260830221051 67 162 3.0 6.0 0.00 0.01 0.01 92 1017.8
20260830220550 68 182 2.0 3.0 0.00 0.01 0.01 91 1017.8
20260830220043 68 140 3.0 4.0 0.00 0.01 0.01 91 1017.7
20260830215537 68 129 2.0 3.0 0.00 0.01 0.01 91 1017.7
20260830215032 68 111 4.0 9.0 0.00 0.01 0.01 91 1017.7
20260830214527 68 151 4.0 7.0 0.00 0.01 0.01 90 1017.6
20260830214021 68 97 4.0 8.0 0.00 0.01 0.01 90 1017.6
20260830213516 69 185 4.0 7.0 0.00 0.01 0.01 88 1017.7
20260830213012 70 72 2.0 6.0 0.00 0.01 0.01 87 1017.7
20260830212507 69 183 3.0 7.0 0.00 0.01 0.01 88 1017.7
20260830212007 69 335 3.0 8.0 0.00 0.01 0.01 88 1017.9
20260830211502 69 133 5.0 8.0 0.00 0.01 0.01 89 1017.5
20260830210957 69 82 3.0 6.0 0.00 0.01 0.01 89 1017.7
20260830210457 69 157 5.0 11.0 0.00 0.01 0.01 87 1017.8
20260830205955 69 71 4.0 9.0 0.00 0.01 0.01 88 1017.7
20260830205454 69 179 4.0 6.0 0.00 0.01 0.01 88 1017.9
20260830204949 68 193 4.0 4.0 0.00 0.01 0.01 89 1017.5
20260830204448 68 127 8.0 11.0 0.00 0.01 0.01 89 1017.5
20260830203943 69 120 3.0 8.0 0.00 0.01 0.01 89 1017.6
20260830203440 68 124 3.0 9.0 0.00 0.01 0.01 90 1017.7
20260830202938 68 80 4.0 6.0 0.00 0.01 0.01 90 1017.7
20260830202434 68 115 4.0 7.0 0.00 0.01 0.01 89 1017.9
20260830201931 68 134 4.0 9.0 0.00 0.01 0.01 90 1018.0
20260830201429 68 156 2.0 7.0 0.00 0.01 0.01 89 1018.0
20260830200925 69 126 2.0 3.0 0.00 0.01 0.01 89 1018.3
20260830200425 68 171 3.0 7.0 0.00 0.01 0.01 89 1018.3
20260830195914 69 108 3.0 8.0 0.00 0.01 0.01 88 1018.0
20260830195414 69 120 2.0 4.0 0.00 0.01 0.01 88 1017.8
20260830194912 69 146 6.0 10.0 0.00 0.01 0.01 87 1017.7
20260830194407 69 252 6.0 8.0 0.00 0.01 0.01 87 1018.0
20260830193906 69 57 5.0 8.0 0.00 0.01 0.01 86 1018.0
20260830193405 69 92 4.0 7.0 0.00 0.01 0.01 86 1018.1
20260830192901 69 140 5.0 13.0 0.00 0.01 0.01 87 1018.1
20260830192356 69 173 2.0 4.0 0.00 0.01 0.01 88 1018.5
20260830191852 68 197 3.0 4.0 0.00 0.01 0.01 89 1018.6
20260830191351 68 139 2.0 6.0 0.00 0.01 0.01 89 1018.4
20260830190847 68 106 4.0 8.0 0.00 0.01 0.01 89 1018.4
20260830190342 69 146 2.0 8.0 0.00 0.01 0.01 88 1018.4
20260830185840 69 98 3.0 6.0 0.00 0.01 0.01 87 1018.1
20260830185336 69 94 2.0 6.0 0.00 0.01 0.01 88 1018.1
20260830184831 69 77 8.0 10.0 0.00 0.01 0.01 87 1018.3
20260830184330 69 177 2.0 3.0 0.00 0.01 0.01 89 1018.4
20260830183825 69 81 4.0 6.0 0.00 0.01 0.01 88 1018.6
20260830183324 70 191 6.0 10.0 0.00 0.01 0.01 86 1018.5
20260830182820 69 161 3.0 4.0 0.00 0.01 0.01 87 1018.4
20260830182316 70 205 3.0 7.0 0.00 0.01 0.01 87 1018.1
20260830181812 69 126 4.0 6.0 0.00 0.01 0.01 89 1018.4
20260830181308 69 75 4.0 13.0 0.00 0.01 0.01 88 1018.6
20260830180807 70 91 6.0 10.0 0.00 0.01 0.01 87 1018.5
20260830180302 70 120 6.0 7.0 0.00 0.01 0.01 87 1018.4
20260830175800 70 80 3.0 6.0 0.00 0.01 0.01 87 1018.0
20260830175256 69 170 3.0 8.0 0.00 0.01 0.01 89 1018.4
20260830174756 68 96 3.0 8.0 0.00 0.01 0.01 90 1018.3
20260830174252 68 161 3.0 7.0 0.00 0.01 0.01 91 1018.3
20260830173751 68 164 4.0 6.0 0.00 0.01 0.01 91 1018.3
20260830173246 68 102 2.0 7.0 0.00 0.01 0.01 93 1018.5
20260830172743 67 120 3.0 9.0 0.00 0.01 0.01 93 1018.3
20260830172240 68 145 2.0 6.0 0.00 0.01 0.01 92 1018.4
20260830171736 67 159 7.0 13.0 0.00 0.01 0.01 92 1018.4
20260830171236 67 174 7.0 10.0 0.00 0.01 0.01 93 1018.1
20260830170730 67 54 4.0 6.0 0.00 0.01 0.01 94 1018.1
20260830170229 66 147 4.0 8.0 0.00 0.01 0.01 95 1018.3
20260830165729 67 146 5.0 7.0 0.00 0.01 0.01 95 1018.3
20260830165225 67 141 4.0 8.0 0.00 0.01 0.01 95 1018.5
20260830164721 66 126 5.0 8.0 0.00 0.01 0.01 95 1018.7
20260830164217 66 29 5.0 8.0 0.00 0.01 0.01 95 1018.8
20260830163713 66 167 2.0 4.0 0.00 0.01 0.01 96 1018.7
20260830163209 66 111 4.0 10.0 0.00 0.01 0.01 95 1018.8
20260830162703 67 183 3.0 6.0 0.00 0.01 0.01 95 1018.6
20260830162159 67 150 2.0 4.0 0.00 0.01 0.01 94 1018.6
20260830161654 66 189 2.0 4.0 0.00 0.01 0.01 95 1018.6
20260830161148 66 170 2.0 7.0 0.00 0.01 0.01 95 1018.5
20260830160645 66 116 2.0 4.0 0.00 0.01 0.01 94 1018.3
20260830160139 66 172 2.0 8.0 0.00 0.01 0.01 95 1018.5
20260830155636 66 80 4.0 6.0 0.00 0.01 0.01 95 1018.3
20260830155131 66 49 4.0 7.0 0.00 0.01 0.01 95 1018.5
20260830154626 66 165 4.0 4.0 0.00 0.01 0.01 96 1018.5
20260830154122 66 77 2.0 6.0 0.00 0.01 0.01 96 1018.5
20260830153619 66 146 3.0 9.0 0.00 0.01 0.01 96 1018.5
20260830153118 66 170 2.0 6.0 0.00 0.01 0.01 96 1018.6
20260830152617 65 186 3.0 4.0 0.00 0.01 0.01 97 1018.4
20260830152116 65 131 4.0 8.0 0.00 0.01 0.01 97 1018.3
20260830151611 65 148 2.0 10.0 0.00 0.01 0.01 97 1018.0
20260830151106 65 213 3.0 7.0 0.00 0.01 0.01 97 1018.1
20260830150606 65 117 2.0 10.0 0.00 0.01 0.01 97 1018.0
20260830150107 65 129 4.0 9.0 0.00 0.01 0.01 98 1017.9
20260830145606 65 151 2.0 3.0 0.00 0.01 0.01 98 1017.8
20260830145101 64 148 3.0 4.0 0.00 0.01 0.01 99 1017.9
20260830144557 64 161 3.0 7.0 0.00 0.01 0.01 99 1017.7
20260830144053 64 90 3.0 6.0 0.00 0.01 0.01 99 1017.7
20260830143548 64 105 3.0 4.0 0.00 0.01 0.01 99 1017.7
20260830143046 64 75 2.0 3.0 0.00 0.01 0.01 99 1017.7
20260830142542 63 115 2.0 4.0 0.00 0.01 0.01 99 1017.7
20260830142037 63 73 4.0 4.0 0.00 0.01 0.01 99 1017.9
20260830141532 63 162 1.0 4.0 0.00 0.01 0.01 99 1017.9
20260830141027 63 117 2.0 8.0 0.00 0.01 0.01 99 1018.0
20260830140521 63 106 4.0 6.0 0.00 0.01 0.01 99 1018.1
20260830140017 63 74 1.0 6.0 0.07 0.01 0.01 99 1017.8
20260830135512 62 124 6.0 10.0 0.07 0.01 0.01 99 1017.8
20260830135007 62 77 3.0 4.0 0.00 0.00 0.00 99 1017.6
20260830134503 63 83 3.0 7.0 0.00 0.00 0.00 99 1017.6
20260830133958 63 177 3.0 6.0 0.00 0.00 0.00 99 1017.5
20260830133453 63 115 4.0 8.0 0.00 0.00 0.00 99 1017.6
20260830132948 63 82 3.0 4.0 0.00 0.00 0.00 99 1017.8
20260830132444 63 154 0.0 4.0 0.00 0.00 0.00 99 1017.8
20260830131943 64 160 3.0 4.0 0.00 0.00 0.00 98 1017.7
20260830131437 64 171 2.0 2.0 0.00 0.00 0.00 98 1017.6
20260830130932 63 45 4.0 4.0 0.00 0.00 0.00 99 1017.7
20260830130428 63 141 3.0 4.0 0.00 0.00 0.00 99 1017.7
20260830125926 63 143 2.0 7.0 0.00 0.00 0.00 99 1017.8
20260830125422 63 171 2.0 6.0 0.00 0.00 0.00 99 1017.8
20260830124919 62 177 1.0 7.0 0.00 0.00 0.00 99 1017.6
20260830124415 62 143 0.0 3.0 0.00 0.00 0.00 99 1017.7
20260830123911 62 189 1.0 2.0 0.00 0.00 0.00 99 1017.8
20260830123408 62 201 0.0 0.0 0.00 0.00 0.00 98 1017.9
20260830122905 62 191 0.0 1.0 0.00 0.00 0.00 98 1017.9
20260830122400 62 209 0.0 0.0 0.00 0.00 0.00 98 1018.1
20260830121855 62 208 0.0 3.0 0.00 0.00 0.00 98 1017.9
20260830121355 62 152 1.0 2.0 0.00 0.00 0.00 98 1017.6
20260830120850 62 178 1.0 4.0 0.00 0.00 0.00 99 1017.8
20260830120345 62 131 1.0 2.0 0.00 0.00 0.00 99 1017.7
20260830115842 62 43 2.0 2.0 0.00 0.00 0.00 99 1017.7
20260830115338 62 188 1.0 3.0 0.00 0.00 0.00 99 1017.6
20260830114833 62 60 1.0 2.0 0.00 0.00 0.00 99 1017.5
20260830114329 61 95 1.0 3.0 0.00 0.00 0.00 99 1017.5
20260830113824 61 179 0.0 2.0 0.00 0.00 0.00 99 1017.5
20260830113319 61 190 0.0 1.0 0.00 0.00 0.00 99 1017.5
20260830112810 61 178 1.0 1.0 0.00 0.00 0.00 99 1017.3